QPF
0.00 0.00 0.00 0.00 0.00 0.00 0.00 0.00 0.00 0.00 0.00 0.00 0.00 0.00 0.00 0.00 0.00 0.00 0.00 0.00 0.00 0.00 0.00 0.00 0.00 0.00 0.00 0.00 0.00 0.00 0.00 0.00 0.00 0.00 0.00 0.00 0.00 0.00 0.00 0.00 0.00 0.00 0.00 0.00 0.00
0.00 0.00 0.00 0.00 0.00 0.00 0.00 0.00 0.00 0.00 0.00 0.00 0.00 0.00 0.00 0.00 0.00 0.00 0.00 0.00 0.00 0.00 0.00 0.00 0.00 0.00 0.00 0.00 0.00 0.00 0.00 0.00 0.00 0.00 0.00 0.00 0.00 0.00 0.00 0.00 0.00 0.00 0.00 0.00 0.00
0.00 0.00 0.00 0.00 0.00 0.00 0.00 0.00 0.00 0.00 0.00 0.00 0.00 0.00 0.00 0.00 0.00 0.00 0.00 0.00 0.00 0.00 0.00 0.00 0.00 0.00 0.00 0.00 0.00 0.00 0.00 0.00 0.00 0.00 0.00 0.00 0.00 0.00 0.00 0.00 0.00 0.00 0.00 0.00 0.00
0.00 0.00 0.00 0.00 0.00 0.00 0.00 0.00 0.00 0.00 0.00 0.00 0.00 0.00 0.00 0.00 0.00 0.00 0.00 0.00 0.00 0.00 0.00 0.00 0.00 0.00 0.00 0.00 0.00 0.00 0.00 0.00 0.00 0.00 0.00 0.00 0.00 0.00 0.00 0.00 0.00 0.00 0.00 0.00 0.00
0.00 0.00 0.00 0.00 0.00 0.00 0.00 0.00 0.00 0.00 0.00 0.00 0.00 0.00 0.00 0.00 0.00 0.00 0.00 0.00 0.00 0.00 0.00 0.00 0.00 0.00 0.00 0.00 0.00 0.00 0.00 0.00 0.00 0.00 0.00 0.00 0.00 0.00 0.00 0.00 0.00 0.00 0.00 0.00 0.00
0.00 0.00 0.00 0.00 0.00 0.00 0.00 0.00 0.00 0.00 0.00 0.00 0.00 0.00 0.00 0.00 0.00 0.00 0.00 0.00 0.00 0.00 0.00 0.00 0.00 0.00 0.00 0.00 0.00 0.00 0.00 0.00 0.00 0.00 0.00 0.00 0.00 0.00 0.00 0.00 0.00 0.00 0.01 0.00 0.00
0.00 0.00 0.00 0.00 0.00 0.00 0.00 0.00 0.00 0.00 0.00 0.00 0.00 0.00 0.00 0.00 0.00 0.00 0.00 0.00 0.00 0.00 0.00 0.00 0.00 0.00 0.00 0.00 0.00 0.00 0.00 0.00 0.00 0.00 0.00 0.00 0.01 0.00 0.00 0.00 0.00 0.00 0.00 0.00 0.00
0.00 0.00 0.00 0.00 0.00 0.00 0.00 0.00 0.00 0.00 0.00 0.00 0.00 0.00 0.00 0.00 0.00 0.00 0.00 0.00 0.00 0.00 0.00 0.00 0.00 0.00 0.00 0.00 0.00 0.00 0.00 0.00 0.00 0.00 0.00 0.00 0.00 0.00 0.00 0.00 0.00 0.00 0.00 0.00 0.00
0.00 0.00 0.00 0.00 0.00 0.00 0.00 0.00 0.00 0.00 0.00 0.00 0.00 0.00 0.00 0.00 0.00 0.00 0.00 0.00 0.00 0.00 0.00 0.00 0.00 0.00 0.00 0.00 0.00 0.00 0.00 0.00 0.00 0.00 0.00 0.00 0.00 0.00 0.00 0.01 0.01 0.00 0.01 0.01 0.01
0.00 0.00 0.00 0.00 0.00 0.00 0.00 0.00 0.00 0.00 0.00 0.00 0.00 0.00 0.00 0.00 0.00 0.00 0.00 0.00 0.00 0.00 0.00 0.00 0.00 0.00 0.00 0.00 0.00 0.00 0.00 0.00 0.00 0.00 0.00 0.00 0.00 0.00 0.00 0.01 0.03 0.02 0.04 0.12 0.19
0.00 0.00 0.00 0.00 0.00 0.00 0.00 0.00 0.00 0.00 0.00 0.00 0.00 0.00 0.00 0.00 0.00 0.00 0.00 0.00 0.00 0.00 0.00 0.00 0.00 0.00 0.00 0.00 0.00 0.00 0.00 0.00 0.00 0.00 0.00 0.00 0.02 0.00 0.00 0.00 0.01 0.00 0.06 0.20 0.20
0.00 0.00 0.00 0.00 0.00 0.00 0.00 0.00 0.00 0.00 0.00 0.00 0.00 0.00 0.00 0.00 0.00 0.00 0.00 0.00 0.00 0.00 0.00 0.00 0.00 0.00 0.00 0.00 0.00 0.00 0.00 0.00 0.00 0.00 0.00 0.00 0.00 0.00 0.00 0.00 0.01 0.05 0.07 0.17 0.11
0.00 0.00 0.00 0.00 0.00 0.00 0.00 0.00 0.00 0.00 0.00 0.00 0.00 0.00 0.00 0.00 0.00 0.00 0.00 0.00 0.00 0.00 0.00 0.00 0.00 0.00 0.00 0.00 0.00 0.00 0.00 0.00 0.00 0.00 0.00 0.00 0.01 0.00 0.00 0.00 0.00 0.01 0.05 0.16 0.14
0.00 0.00 0.00 0.00 0.00 0.00 0.00 0.00 0.00 0.00 0.01 0.00 0.00 0.00 0.00 0.00 0.00 0.00 0.00 0.00 0.00 0.00 0.00 0.00 0.00 0.00 0.00 0.00 0.00 0.00 0.00 0.00 0.00 0.00 0.01 0.00 0.00 0.00 0.00 0.00 0.00 0.00 0.02 0.09 0.07
0.01 0.00 0.00 0.00 0.00 0.00 0.00 0.00 0.00 0.01 0.05 0.00 0.00 0.00 0.00 0.00 0.00 0.00 0.00 0.00 0.00 0.00 0.00 0.00 0.00 0.00 0.00 0.00 0.00 0.00 0.00 0.00 0.00 0.00 0.00 0.01 0.00 0.01 0.00 0.00 0.00 0.00 0.03 0.08 0.11
0.00 0.00 0.00 0.00 0.00 0.00 0.00 0.01 0.02 0.08 0.05 0.00 0.00 0.00 0.00 0.00 0.00 0.00 0.00 0.00 0.00 0.00 0.00 0.00 0.00 0.00 0.00 0.00 0.00 0.00 0.00 0.00 0.00 0.00 0.02 0.00 0.00 0.00 0.00 0.00 0.00 0.00 0.01 0.04 0.06
0.02 0.01 0.00 0.00 0.02 0.02 0.03 0.07 0.15 0.09 0.01 0.00 0.00 0.00 0.00 0.00 0.00 0.00 0.00 0.00 0.00 0.00 0.00 0.00 0.00 0.00 0.00 0.00 0.00 0.00 0.00 0.00 0.00 0.01 0.00 0.00 0.00 0.00 0.00 0.00 0.00 0.00 0.00 0.02 0.06
0.01 0.01 0.01 0.02 0.04 0.06 0.09 0.15 0.17 0.03 0.01 0.01 0.00 0.00 0.00 0.00 0.00 0.00 0.00 0.00 0.00 0.00 0.00 0.00 0.00 0.00 0.00 0.00 0.00 0.00 0.00 0.00 0.00 0.00 0.00 0.00 0.00 0.00 0.00 0.00 0.00 0.00 0.00 0.00 0.02
0.03 0.03 0.04 0.08 0.09 0.11 0.18 0.19 0.07 0.01 0.01 0.01 0.01 0.01 0.01 0.00 0.00 0.00 0.00 0.00 0.00 0.00 0.00 0.00 0.00 0.00 0.00 0.00 0.00 0.00 0.00 0.00 0.00 0.00 0.01 0.00 0.00 0.00 0.00 0.00 0.00 0.00 0.00 0.00 0.01
0.11 0.09 0.06 0.06 0.09 0.12 0.18 0.11 0.02 0.01 0.01 0.02 0.02 0.02 0.01 0.01 0.00 0.00 0.00 0.00 0.00 0.00 0.00 0.00 0.00 0.00 0.00 0.00 0.00 0.00 0.00 0.00 0.00 0.01 0.00 0.00 0.00 0.00 0.00 0.00 0.00 0.00 0.00 0.00 0.00
0.15 0.13 0.04 0.04 0.11 0.13 0.10 0.02 0.01 0.01 0.03 0.04 0.03 0.02 0.01 0.01 0.00 0.00 0.00 0.00 0.00 0.00 0.00 0.00 0.00 0.00 0.00 0.00 0.00 0.00 0.00 0.00 0.00 0.00 0.00 0.00 0.00 0.00 0.00 0.00 0.00 0.00 0.00 0.00 0.00
0.12 0.11 0.03 0.05 0.11 0.07 0.03 0.01 0.02 0.01 0.07 0.03 0.02 0.01 0.01 0.01 0.00 0.00 0.00 0.00 0.00 0.00 0.00 0.00 0.00 0.00 0.00 0.00 0.00 0.00 0.00 0.00 0.00 0.00 0.00 0.00 0.00 0.00 0.00 0.00 0.00 0.00 0.00 0.00 0.00
0.24 0.13 0.06 0.08 0.09 0.02 0.02 0.05 0.07 0.03 0.03 0.02 0.02 0.01 0.00 0.00 0.00 0.00 0.00 0.00 0.00 0.00 0.00 0.00 0.00 0.00 0.00 0.00 0.00 0.00 0.00 0.00 0.00 0.00 0.00 0.00 0.00 0.00 0.00 0.00 0.00 0.00 0.00 0.00 0.00
0.28 0.15 0.05 0.04 0.04 0.03 0.06 0.09 0.07 0.02 0.03 0.02 0.01 0.01 0.00 0.00 0.00 0.00 0.00 0.00 0.00 0.00 0.00 0.00 0.00 0.00 0.00 0.00 0.00 0.00 0.00 0.00 0.00 0.00 0.00 0.00 0.00 0.00 0.00 0.00 0.00 0.00 0.00 0.00 0.00
0.34 0.13 0.02 0.02 0.01 0.05 0.10 0.09 0.03 0.03 0.03 0.01 0.00 0.00 0.00 0.00 0.00 0.00 0.00 0.00 0.00 0.00 0.00 0.00 0.00 0.00 0.00 0.00 0.00 0.00 0.00 0.00 0.00 0.00 0.00 0.00 0.00 0.00 0.00 0.00 0.00 0.00 0.00 0.00 0.00
0.29 0.11 0.03 0.03 0.02 0.06 0.09 0.05 0.04 0.09 0.02 0.01 0.01 0.00 0.00 0.00 0.00 0.00 0.00 0.00 0.00 0.00 0.00 0.00 0.00 0.00 0.00 0.00 0.00 0.00 0.00 0.00 0.00 0.00 0.00 0.00 0.00 0.00 0.00 0.00 0.00 0.00 0.00 0.00 0.00
0.13 0.08 0.08 0.12 0.05 0.05 0.05 0.06 0.07 0.09 0.02 0.00 0.00 0.00 0.00 0.00 0.00 0.00 0.00 0.00 0.00 0.00 0.00 0.00 0.00 0.00 0.00 0.00 0.00 0.00 0.00 0.00 0.00 0.00 0.00 0.00 0.00 0.00 0.00 0.00 0.00 0.00 0.00 0.00 0.00
MSLP
1019.92 1019.78 1019.69 1019.52 1019.31 1019.19 1019.02 1018.80 1018.59 1018.44 1018.21 1017.99 1017.79 1017.59 1017.35 1016.90 1016.60 1016.19 1016.48 1016.99 1016.35 1015.63 1014.72 1013.73 1013.42 1013.38 1013.21 1013.36 1013.84 1014.11 1014.07 1013.92 1014.12 1013.95 1013.72 1013.72 1013.93 1014.09 1014.86 1014.88 1014.59 1014.83 1014.81 1014.42 1013.51
1019.90 1019.74 1019.63 1019.47 1019.29 1019.12 1019.02 1018.84 1018.65 1018.43 1018.23 1018.03 1017.73 1017.52 1017.32 1017.01 1016.56 1016.24 1017.10 1016.59 1016.24 1015.78 1014.80 1014.07 1013.64 1013.25 1013.12 1013.41 1013.78 1014.19 1014.18 1014.16 1014.25 1014.16 1014.30 1014.47 1014.49 1014.77 1015.09 1015.25 1015.42 1015.39 1015.41 1014.93 1014.36
1019.89 1019.80 1019.61 1019.39 1019.23 1019.08 1018.87 1018.81 1018.60 1018.43 1018.23 1018.03 1017.79 1017.51 1017.25 1017.05 1016.46 1016.68 1016.81 1016.50 1016.22 1015.77 1014.84 1014.05 1013.26 1013.43 1013.04 1013.40 1014.06 1014.33 1014.29 1014.29 1014.19 1014.39 1014.45 1014.49 1015.12 1015.58 1015.76 1016.25 1016.50 1015.64 1014.65 1014.93 1014.52
1019.79 1019.67 1019.62 1019.44 1019.16 1018.98 1018.74 1018.67 1018.52 1018.31 1018.15 1017.94 1017.72 1017.43 1017.13 1016.97 1017.04 1016.72 1016.71 1016.41 1016.14 1015.47 1014.71 1014.09 1013.78 1013.48 1013.41 1013.89 1014.10 1014.45 1014.08 1014.22 1014.36 1014.31 1014.36 1014.81 1015.50 1015.96 1016.47 1017.14 1016.82 1016.15 1015.75 1015.19 1014.64
1019.88 1019.68 1019.47 1019.37 1019.23 1019.00 1018.65 1018.51 1018.36 1018.23 1018.06 1017.83 1017.60 1017.30 1017.01 1016.51 1017.05 1016.85 1016.65 1016.31 1015.79 1015.21 1014.88 1014.64 1014.47 1014.25 1014.07 1014.28 1014.28 1014.29 1014.47 1014.35 1014.01 1014.31 1014.20 1014.99 1015.55 1016.47 1017.04 1017.15 1016.88 1016.69 1015.98 1015.51 1014.99
1019.92 1019.91 1019.60 1019.40 1019.28 1019.02 1018.65 1018.36 1018.23 1018.08 1018.04 1017.86 1017.51 1017.28 1016.91 1016.58 1016.94 1016.79 1016.63 1016.29 1016.04 1015.49 1015.18 1015.18 1015.13 1014.75 1014.60 1014.58 1014.56 1014.52 1014.54 1014.12 1013.74 1014.07 1014.46 1015.15 1016.21 1016.78 1017.57 1017.36 1017.24 1016.92 1016.31 1015.79 1015.18
1020.00 1019.82 1019.89 1019.51 1019.25 1019.02 1018.63 1018.18 1018.03 1017.95 1017.86 1017.65 1017.52 1017.21 1016.18 1016.98 1016.77 1016.72 1016.44 1016.32 1016.35 1016.01 1015.64 1015.48 1015.39 1015.05 1014.78 1014.53 1014.36 1014.42 1014.50 1013.55 1013.64 1014.01 1014.56 1015.22 1016.77 1017.44 1017.99 1017.91 1017.65 1017.23 1016.58 1015.99 1015.33
1019.89 1019.75 1019.87 1019.73 1019.10 1018.96 1018.52 1018.13 1017.90 1017.80 1017.69 1017.48 1017.32 1017.11 1016.66 1016.87 1016.86 1016.90 1016.69 1015.99 1016.18 1016.11 1015.79 1015.47 1015.28 1015.00 1014.59 1014.22 1014.04 1014.18 1014.06 1014.16 1013.42 1013.99 1014.93 1015.64 1016.49 1017.59 1018.33 1018.25 1017.76 1017.58 1016.99 1016.39 1015.76
1018.88 1019.82 1019.91 1019.74 1019.28 1018.90 1018.42 1018.01 1017.92 1017.70 1017.43 1017.21 1017.34 1016.77 1016.84 1016.98 1016.98 1017.27 1017.11 1016.87 1016.32 1015.94 1015.67 1015.14 1015.18 1015.07 1015.04 1014.55 1014.15 1014.49 1015.20 1014.99 1014.17 1014.28 1014.97 1015.89 1016.98 1017.81 1018.48 1018.29 1018.24 1017.78 1017.32 1016.55 1015.74
1018.71 1019.73 1019.93 1019.79 1019.33 1018.83 1018.44 1017.85 1017.95 1017.77 1017.23 1016.90 1016.73 1016.97 1016.98 1017.40 1017.53 1017.51 1017.15 1016.89 1016.50 1015.87 1015.54 1015.06 1015.11 1015.62 1016.09 1016.18 1016.52 1016.52 1016.03 1015.45 1014.86 1014.71 1014.99 1015.79 1016.62 1017.88 1018.36 1018.37 1018.69 1018.45 1017.79 1017.01 1016.23
1018.98 1019.55 1019.88 1019.75 1019.41 1018.90 1018.48 1017.92 1018.50 1018.21 1017.31 1017.41 1017.43 1017.22 1017.66 1017.84 1017.59 1017.80 1017.54 1016.68 1016.12 1015.89 1015.38 1015.52 1016.31 1016.92 1016.87 1016.65 1017.03 1016.73 1016.07 1015.53 1014.95 1014.87 1015.53 1016.10 1017.21 1018.22 1018.55 1018.74 1018.88 1018.65 1018.01 1017.37 1016.68
1019.23 1019.46 1019.74 1019.74 1019.34 1019.06 1018.86 1018.60 1019.71 1019.70 1018.56 1017.74 1017.94 1017.95 1018.25 1018.28 1017.66 1018.07 1017.78 1016.93 1016.14 1016.23 1015.67 1016.30 1016.91 1017.33 1017.04 1016.59 1017.03 1016.72 1016.24 1016.36 1015.57 1015.16 1015.51 1015.62 1017.59 1018.24 1018.77 1019.21 1019.27 1019.45 1018.76 1017.92 1016.75
1019.57 1019.42 1019.65 1019.58 1019.48 1019.37 1019.39 1020.09 1019.94 1019.58 1018.68 1018.17 1018.28 1018.42 1018.75 1018.46 1018.80 1019.08 1018.90 1018.08 1017.57 1017.09 1017.08 1017.31 1017.88 1017.63 1017.38 1017.25 1017.54 1017.09 1017.02 1017.07 1016.70 1015.63 1015.23 1015.91 1017.78 1018.42 1018.91 1019.24 1019.12 1019.28 1019.53 1018.73 1017.77
1019.47 1019.45 1019.52 1019.54 1020.13 1019.92 1020.21 1020.34 1020.00 1019.39 1019.07 1018.68 1018.53 1018.92 1018.88 1018.68 1019.22 1019.56 1019.39 1019.21 1018.21 1018.28 1018.14 1018.01 1018.29 1018.19 1017.92 1018.02 1018.19 1017.47 1016.91 1017.22 1016.56 1016.14 1016.31 1016.46 1018.23 1018.82 1019.33 1019.46 1019.69 1019.36 1019.32 1019.00 1018.13
1019.51 1019.50 1019.74 1019.57 1020.00 1020.62 1021.23 1020.63 1019.89 1019.88 1019.39 1018.60 1018.77 1019.20 1018.77 1019.05 1019.59 1019.60 1019.75 1019.05 1019.47 1019.25 1019.14 1019.00 1018.80 1018.72 1018.69 1018.79 1018.41 1018.06 1017.54 1017.03 1016.84 1016.82 1016.96 1017.23 1018.44 1020.24 1019.75 1020.10 1020.37 1020.15 1020.10 1020.05 1019.18
1019.05 1019.55 1019.73 1019.81 1020.39 1021.67 1021.36 1020.98 1020.59 1020.07 1018.82 1018.71 1018.74 1018.99 1019.00 1019.30 1019.69 1019.71 1020.11 1020.07 1020.51 1020.24 1019.59 1019.58 1019.14 1019.31 1019.66 1018.78 1018.59 1018.45 1017.39 1016.90 1017.32 1017.55 1018.01 1018.42 1018.96 1021.28 1021.74 1022.67 1021.92 1021.80 1021.10 1020.71 1019.78
1018.90 1019.39 1019.97 1020.28 1021.22 1021.45 1021.63 1021.44 1021.00 1019.87 1018.67 1019.04 1018.97 1019.01 1019.40 1019.89 1020.08 1020.54 1021.28 1021.69 1022.21 1021.82 1021.05 1020.37 1020.03 1019.80 1019.92 1019.50 1019.28 1019.18 1018.87 1018.91 1019.19 1018.82 1018.74 1018.45 1019.46 1022.30 1022.84 1023.24 1023.26 1022.89 1022.14 1021.50 1020.75
1018.75 1019.63 1020.57 1021.09 1021.54 1021.44 1021.79 1021.58 1020.54 1019.55 1019.16 1019.36 1019.33 1019.49 1019.71 1020.53 1020.96 1021.01 1021.50 1022.42 1023.27 1023.49 1022.83 1022.42 1021.20 1021.15 1021.12 1021.35 1021.27 1020.92 1021.38 1022.59 1023.02 1022.05 1020.56 1018.83 1020.43 1022.55 1022.84 1023.65 1023.70 1023.57 1023.18 1022.29 1021.09
1018.64 1019.86 1020.63 1021.53 1021.59 1021.41 1021.72 1021.14 1020.14 1019.70 1019.71 1019.72 1019.89 1019.78 1020.28 1020.80 1021.39 1021.54 1022.31 1023.33 1024.31 1024.64 1024.59 1023.93 1022.79 1021.83 1021.83 1022.05 1021.70 1021.97 1023.09 1024.23 1024.38 1023.47 1022.57 1020.42 1021.15 1021.89 1022.76 1023.46 1023.62 1023.70 1023.53 1022.77 1022.11
1018.37 1019.75 1020.82 1021.43 1021.42 1021.57 1021.40 1020.95 1020.77 1020.62 1020.49 1020.40 1020.05 1019.90 1020.10 1020.71 1021.46 1021.83 1022.63 1024.06 1024.62 1025.23 1025.41 1025.36 1024.51 1022.68 1022.35 1022.50 1022.60 1023.01 1023.96 1024.75 1025.18 1025.31 1024.04 1022.12 1022.52 1024.28 1024.18 1024.37 1024.41 1024.20 1024.13 1023.71 1022.83
1017.78 1019.52 1021.33 1021.38 1021.47 1021.52 1021.40 1021.26 1021.69 1021.94 1021.60 1021.59 1020.74 1020.24 1020.33 1020.53 1021.24 1022.10 1022.91 1024.31 1024.57 1025.40 1025.70 1025.90 1025.69 1023.95 1023.38 1024.13 1024.24 1024.15 1024.95 1025.55 1026.15 1026.62 1026.50 1025.20 1024.68 1025.11 1025.88 1026.05 1025.83 1025.66 1025.45 1024.42 1023.72
1017.37 1019.67 1021.36 1021.30 1021.70 1021.56 1021.63 1021.79 1022.27 1022.52 1022.65 1022.05 1021.55 1020.91 1020.71 1021.06 1021.55 1022.30 1022.98 1023.93 1024.67 1025.32 1025.93 1026.31 1026.45 1025.89 1025.53 1025.39 1025.19 1025.34 1026.14 1026.91 1027.45 1028.06 1027.47 1026.78 1025.88 1025.63 1026.01 1026.12 1026.38 1026.32 1026.14 1025.60 1024.54
1017.51 1020.00 1021.30 1021.16 1021.23 1021.58 1022.32 1022.47 1022.58 1023.06 1022.97 1022.48 1021.72 1021.42 1021.39 1021.48 1022.16 1022.59 1023.46 1024.59 1025.00 1025.42 1026.04 1026.47 1027.10 1027.02 1027.02 1026.78 1025.94 1026.13 1026.78 1027.65 1028.32 1029.02 1028.61 1027.93 1025.95 1025.12 1025.40 1026.21 1026.65 1026.75 1026.56 1026.27 1025.24
1016.83 1019.33 1021.05 1021.18 1020.81 1020.65 1021.58 1022.14 1022.79 1023.18 1022.75 1022.42 1022.09 1021.93 1021.93 1022.08 1022.47 1023.03 1024.00 1025.03 1025.49 1025.84 1026.36 1026.85 1027.49 1027.64 1027.55 1027.03 1027.05 1027.28 1027.69 1028.31 1028.90 1029.73 1029.08 1027.93 1026.36 1025.70 1026.43 1026.78 1026.81 1027.00 1026.86 1026.92 1026.33
1015.31 1017.01 1017.64 1019.80 1020.13 1020.15 1020.56 1021.34 1022.34 1023.01 1023.21 1022.80 1022.57 1022.04 1021.84 1022.54 1022.90 1023.29 1024.24 1025.45 1025.95 1026.50 1026.96 1027.62 1028.01 1028.04 1027.54 1027.12 1027.29 1027.72 1028.24 1028.74 1029.25 1029.25 1029.20 1027.52 1026.90 1026.77 1026.92 1027.27 1027.37 1027.36 1027.34 1027.31 1026.74
1014.92 1016.23 1017.55 1018.28 1018.57 1019.57 1020.16 1020.87 1021.23 1022.15 1022.47 1022.77 1022.43 1021.63 1021.93 1022.31 1022.42 1023.09 1024.03 1024.97 1025.61 1027.01 1027.84 1028.48 1028.56 1028.52 1028.24 1027.75 1027.88 1028.13 1028.34 1028.57 1028.70 1028.78 1028.37 1027.58 1026.49 1026.64 1026.84 1026.86 1027.40 1027.61 1027.63 1027.52 1027.42
1014.71 1015.21 1015.19 1017.86 1018.62 1019.12 1019.28 1019.64 1020.33 1021.00 1022.17 1021.74 1021.73 1021.84 1022.33 1022.91 1022.94 1023.39 1024.08 1024.69 1025.66 1027.01 1028.38 1029.07 1029.20 1029.31 1028.99 1028.51 1028.64 1028.79 1028.28 1028.32 1028.27 1028.16 1027.85 1027.51 1026.27 1026.21 1026.79 1027.08 1027.53 1027.89 1028.11 1028.03 1027.84
Thickness
5651 5651 5650 5649 5649 5648 5646 5646 5646 5646 5646 5646 5645 5644 5641 5642 5642 5642 5636 5631 5635 5638 5644 5649 5647 5644 5641 5633 5624 5614 5599 5585 5579 5570 5556 5540 5518 5501 5481 5473 5471 5459 5448 5448 5456
5645 5645 5645 5645 5644 5644 5642 5642 5642 5643 5642 5642 5642 5641 5639 5637 5639 5638 5629 5631 5632 5633 5639 5639 5636 5637 5632 5624 5615 5603 5591 5582 5573 5556 5530 5513 5500 5487 5478 5469 5455 5448 5441 5437 5439
5639 5639 5639 5640 5640 5639 5639 5637 5638 5638 5638 5638 5638 5637 5636 5634 5637 5630 5627 5628 5628 5630 5635 5637 5640 5632 5630 5622 5606 5594 5583 5576 5562 5541 5520 5505 5489 5478 5466 5450 5441 5440 5447 5435 5432
5633 5633 5633 5633 5635 5635 5636 5634 5633 5633 5633 5634 5634 5633 5632 5631 5629 5626 5624 5624 5625 5628 5631 5631 5628 5623 5619 5606 5603 5584 5585 5568 5547 5530 5511 5496 5485 5473 5455 5436 5433 5432 5429 5427 5426
5625 5626 5627 5627 5628 5629 5631 5630 5630 5629 5629 5630 5630 5630 5631 5633 5621 5620 5620 5622 5624 5626 5624 5621 5615 5611 5606 5599 5594 5584 5570 5557 5544 5522 5508 5494 5481 5464 5448 5438 5430 5421 5421 5417 5416
5616 5616 5619 5621 5621 5623 5625 5626 5625 5625 5624 5624 5625 5625 5627 5627 5619 5617 5616 5618 5618 5619 5618 5613 5607 5606 5600 5592 5585 5576 5562 5549 5537 5515 5500 5489 5464 5458 5441 5434 5425 5417 5413 5412 5413
5605 5606 5608 5612 5615 5617 5619 5622 5621 5621 5620 5620 5619 5621 5627 5616 5615 5613 5614 5613 5610 5611 5608 5607 5603 5598 5594 5588 5587 5573 5553 5547 5529 5509 5495 5483 5450 5442 5433 5428 5419 5414 5413 5412 5413
5596 5599 5599 5601 5608 5609 5614 5616 5616 5616 5615 5615 5615 5616 5615 5613 5610 5607 5608 5612 5609 5606 5605 5604 5600 5596 5594 5593 5584 5569 5555 5527 5530 5505 5491 5478 5461 5442 5429 5419 5419 5411 5410 5411 5410
5599 5589 5587 5590 5597 5602 5606 5610 5608 5609 5610 5612 5610 5612 5607 5606 5605 5600 5601 5599 5602 5603 5602 5603 5596 5593 5586 5576 5575 5565 5521 5520 5514 5504 5490 5474 5452 5445 5427 5423 5412 5412 5406 5409 5411
5592 5581 5578 5580 5585 5593 5598 5603 5600 5601 5606 5608 5609 5603 5601 5597 5594 5593 5596 5596 5595 5598 5597 5599 5592 5577 5566 5551 5517 5518 5516 5517 5504 5496 5485 5475 5468 5443 5432 5423 5407 5405 5403 5406 5407
5581 5574 5571 5573 5577 5584 5589 5595 5593 5594 5600 5597 5594 5598 5591 5589 5591 5587 5587 5594 5596 5595 5595 5592 5567 5545 5555 5560 5545 5536 5532 5518 5506 5496 5479 5474 5451 5438 5429 5423 5409 5406 5405 5406 5406
5571 5567 5564 5566 5572 5576 5578 5585 5573 5574 5587 5589 5585 5584 5580 5580 5588 5581 5582 5590 5595 5587 5592 5580 5560 5558 5563 5564 5544 5537 5529 5503 5497 5498 5487 5482 5441 5434 5429 5417 5413 5399 5401 5405 5411
5565 5560 5558 5561 5563 5566 5568 5564 5566 5568 5581 5582 5578 5576 5570 5576 5568 5564 5566 5572 5575 5580 5576 5563 5561 5561 5560 5551 5527 5521 5510 5488 5481 5489 5490 5482 5442 5430 5434 5422 5420 5411 5399 5401 5408
5562 5558 5554 5555 5553 5555 5555 5556 5559 5563 5565 5577 5571 5565 5566 5569 5562 5559 5559 5557 5572 5563 5562 5565 5556 5549 5547 5537 5522 5506 5517 5496 5493 5488 5452 5476 5414 5435 5429 5419 5416 5413 5404 5403 5409
5556 5555 5549 5549 5547 5546 5541 5546 5552 5554 5572 5572 5564 5557 5563 5561 5554 5556 5553 5561 5548 5550 5555 5549 5540 5531 5531 5526 5528 5513 5510 5505 5495 5478 5472 5462 5417 5405 5429 5416 5408 5408 5402 5398 5405
5555 5550 5547 5543 5539 5530 5533 5536 5540 5556 5569 5562 5560 5557 5558 5555 5549 5552 5546 5548 5540 5541 5553 5543 5546 5537 5524 5530 5527 5518 5508 5514 5498 5476 5457 5428 5433 5406 5383 5380 5397 5396 5398 5399 5405
5550 5546 5541 5537 5532 5528 5525 5527 5545 5555 5561 5555 5553 5554 5549 5538 5543 5537 5515 5512 5508 5524 5513 5542 5539 5536 5525 5514 5517 5504 5488 5454 5452 5439 5435 5448 5451 5388 5395 5387 5385 5387 5390 5396 5402
5546 5539 5532 5528 5523 5523 5518 5530 5550 5555 5553 5532 5541 5543 5548 5524 5525 5535 5535 5523 5503 5493 5507 5501 5516 5512 5510 5498 5483 5486 5468 5398 5396 5412 5439 5480 5415 5394 5405 5393 5386 5386 5386 5395 5404
5540 5532 5526 5519 5517 5518 5519 5552 5551 5553 5533 5533 5527 5534 5529 5520 5516 5522 5515 5506 5491 5483 5487 5475 5518 5513 5504 5496 5489 5471 5426 5440 5425 5413 5424 5464 5429 5427 5410 5397 5393 5390 5385 5390 5398
5536 5528 5520 5514 5513 5512 5518 5545 5519 5519 5518 5521 5539 5531 5546 5521 5515 5516 5513 5487 5485 5483 5479 5467 5481 5506 5504 5496 5489 5467 5458 5412 5404 5385 5380 5443 5421 5387 5384 5384 5389 5388 5384 5384 5396
5534 5528 5510 5509 5508 5511 5531 5526 5502 5495 5499 5501 5521 5523 5525 5516 5518 5509 5504 5482 5485 5478 5476 5465 5454 5488 5496 5462 5454 5448 5412 5427 5417 5402 5367 5396 5397 5376 5358 5362 5373 5376 5376 5383 5391
5533 5526 5504 5504 5508 5501 5514 5505 5495 5487 5479 5494 5497 5510 5515 5508 5502 5498 5498 5488 5483 5478 5467 5464 5446 5449 5463 5462 5459 5452 5435 5415 5382 5372 5377 5373 5388 5381 5370 5367 5369 5372 5372 5375 5386
5519 5501 5496 5499 5517 5506 5483 5481 5484 5478 5476 5489 5496 5498 5496 5503 5485 5496 5484 5474 5474 5475 5460 5459 5434 5441 5430 5434 5452 5452 5439 5420 5394 5374 5361 5350 5381 5395 5387 5373 5371 5367 5370 5372 5382
5518 5508 5492 5491 5492 5505 5489 5487 5481 5475 5486 5488 5488 5487 5486 5486 5486 5480 5471 5465 5465 5466 5463 5460 5436 5423 5431 5434 5419 5401 5410 5413 5392 5359 5338 5359 5368 5384 5372 5364 5371 5368 5369 5366 5373
5528 5517 5518 5499 5497 5498 5497 5489 5477 5471 5466 5477 5478 5481 5485 5468 5468 5473 5469 5454 5458 5456 5454 5440 5431 5421 5442 5454 5442 5426 5392 5384 5358 5373 5347 5362 5359 5367 5352 5350 5353 5356 5362 5364 5370
5521 5514 5506 5503 5503 5500 5500 5489 5487 5477 5470 5465 5473 5484 5484 5475 5481 5466 5459 5456 5456 5447 5424 5424 5438 5441 5417 5444 5436 5426 5425 5411 5392 5389 5382 5369 5372 5370 5355 5356 5354 5351 5357 5362 5362
5510 5512 5524 5498 5494 5499 5499 5497 5491 5478 5466 5481 5481 5478 5476 5464 5466 5463 5460 5460 5454 5433 5419 5417 5417 5417 5433 5437 5384 5406 5382 5396 5398 5378 5376 5362 5367 5368 5352 5354 5348 5343 5345 5352 5356